[[{"header":{"parameterUnit":"m.s-1","parameterCategory":2,"la1":30.2991,"la2":30.254,"lo1":-89.0895,"lo2":-89.0444,"dy":0.0017,"dx":0.0017,"nx":28,"ny":28,"refTime":"2024-03-25T21:00:00:Z","depth":"0","parameterNumber":2,"parameterNumberName":"U-component_of_CURRENTS"},"data":[0,0,0,0,0,0,0,0,0,0,0,0,0,0,0,0,0,0,0,0,0,0,0,0,0,0,0,0,0,0,0,0,0,0,0,0,0,0,0,0,0,0,0,0,0,0,0,0,0,0,0,0,0,0,0,0,0,0,0.2947,0.2946,0,0.2879,0.2878,0.2877,0.2815,0.2815,0.2814,0.2814,0.2818,0.2818,0.2819,0,0,0,0,0,0,0,0,0,0,0,0,0,0.305,0.3048,0.2947,0.2946,0.2945,0.2879,0.2878,0.2877,0.2816,0.2815,0.2814,0.2813,0.2818,0.2818,0.2819,0,0,0,0,0,0,0,0,0,0,0,0,0,0.2995,0.3047,0.2947,0.2907,0.2903,0.2879,0.2878,0.2877,0.2816,0.2815,0.2814,0.2813,0.2817,0.2818,0.2819,0.2846,0,0,0.2823,0.2823,0,0,0,0,0,0,0,0,0.2998,0.2991,0.2914,0.291,0.2905,0.2856,0.2916,0.287,0.2816,0.2848,0.2813,0.2812,0.2839,0.2838,0.2825,0.2846,0.2846,0.2823,0.2823,0.2824,0.2824,0,0,0,0,0,0,0,0.3002,0.2994,0.2919,0.2913,0.2908,0.2902,0.2893,0.2907,0.285,0.2845,0.2841,0.2835,0.2836,0.2824,0.2825,0.2846,0.2823,0.2824,0.2824,0.2825,0.2892,0.2893,0,0,0,0,0,0,0.3012,0.2997,0.2921,0.2917,0.2951,0.2901,0.2891,0.2872,0.2848,0.2843,0.2836,0.2832,0.2822,0.2823,0.2825,0.2867,0.2824,0.2825,0.2826,0.2891,0.2892,0.2893,0,0,0,0,0,0,0.3014,0.3005,0.2924,0.2957,0.2947,0.29,0.288,0.2871,0.2859,0.2841,0.2837,0.2833,0.2822,0.2823,0.2833,0.2866,0.2825,0.2826,0.2889,0.2891,0.2893,0.2943,0,0,0,0,0,0,0.3017,0.3006,0.3003,0.2957,0.2945,0.2919,0.288,0.287,0.2858,0.2852,0.2838,0.2836,0.2821,0.2831,0.2834,0.2867,0.2827,0.2888,0.289,0.2892,0.294,0.2947,0.2952,0,0,0,0,0,0.3021,0.3013,0.3003,0.2994,0.2939,0.292,0.2914,0.2878,0.2859,0.2862,0.2843,0.2837,0.2847,0.2833,0.2836,0.287,0.2887,0.289,0.2892,0.2938,0.2945,0.2952,0,0,0,0,0,0,0.305,0.3005,0.2993,0.297,0.2955,0.291,0.2907,0.2887,0.2873,0.2868,0.2847,0.2846,0.2874,0.2863,0.2848,0.2895,0.2869,0.2872,0.2903,0.291,0.2916,0.2958,0.2828,0,0,0,0,0,0.306,0.3044,0.3009,0.2995,0.2988,0.2953,0.2943,0.2921,0.2899,0.289,0.288,0.2875,0.2888,0.2889,0.2898,0.292,0.2936,0.2945,0.2951,0.2956,0.2992,0.3032,0.3045,0.2902,0.2902,0.2902,0,0,0.3065,0.3042,0.3031,0.3003,0.2984,0.2979,0.2944,0.2932,0.2939,0.2899,0.2907,0.2903,0.29,0.2923,0.2935,0.2915,0.3002,0.2959,0.2963,0.2998,0.3036,0.305,0.3063,0.2903,0.2903,0.2903,0,0,0.3071,0.3053,0.3043,0.3039,0.3021,0.3004,0.3007,0.2974,0.2972,0.2972,0.2959,0.2978,0.2968,0.2988,0.2993,0.3043,0.3038,0.3035,0.3093,0.313,0.3143,0.3154,0.3179,0.3192,0.3029,0.3029,0.3029,0,0.3081,0.3056,0.3042,0.3041,0.3035,0.302,0.3015,0.3023,0.3001,0.3011,0.2982,0.3006,0.3009,0.306,0.3078,0.3062,0.307,0.3062,0.3139,0.3151,0.3162,0.3184,0.3199,0.3032,0.3032,0.3031,0.3031,0,0.3079,0.3068,0.3066,0.3057,0.3062,0.3054,0.3062,0.3076,0.3063,0.3063,0.3103,0.3104,0.3117,0.3125,0.3117,0.3201,0.3177,0.3148,0.3123,0.318,0.3199,0.3213,0.3036,0.3035,0.3034,0.3033,0,0,0.3061,0.3059,0.3058,0.3053,0.3063,0.3057,0.3099,0.3116,0.3141,0.3147,0.318,0.3222,0.3224,0.3235,0.3236,0.3281,0.3364,0.3252,0.3253,0.3282,0.3438,0.3384,0.3394,0.3336,0.3339,0.3342,0.3415,0,0.3053,0.3048,0.3055,0.3056,0.3048,0.3069,0.3105,0.3138,0.3159,0.32,0.324,0.3273,0.3265,0.3274,0.3324,0.3364,0.3405,0.3347,0.3377,0.3379,0.3328,0.341,0.3307,0.3361,0.3428,0.343,0.3432,0,0.3037,0.3034,0.3028,0.3039,0.3039,0.3052,0.3097,0.3132,0.3215,0.3237,0.3293,0.3318,0.3417,0.3381,0.3493,0.345,0.3463,0.3483,0.3484,0.3437,0.3352,0.3319,0.3383,0.3313,0.3453,0.3451,0.345,0,0.3008,0.3009,0.2998,0.3002,0.3026,0.3038,0.3062,0.3137,0.3189,0.3276,0.3325,0.3404,0.3466,0.3507,0.3564,0.3528,0.3673,0.361,0.3574,0.3568,0.3494,0.3477,0.3505,0.3688,0.3688,0.3688,0.3687,0,0.2982,0.297,0.298,0.2974,0.298,0.3013,0.3056,0.3097,0.3197,0.3265,0.3347,0.3423,0.3506,0.3589,0.3602,0.3651,0.3697,0.3626,0.3602,0.3504,0.3488,0.3432,0.336,0.369,0.369,0.3689,0.3689,0,0.2944,0.295,0.2935,0.2953,0.2961,0.2969,0.305,0.3085,0.3195,0.3294,0.3332,0.3478,0.3581,0.365,0.3735,0.3708,0.3634,0.3735,0.3615,0.3576,0.3439,0.3372,0.3229,0.3134,0.3701,0.37,0.37,0,0.2921,0.2908,0.2914,0.2906,0.2907,0.294,0.2961,0.3064,0.3119,0.3315,0.3354,0.3514,0.3591,0.3718,0.3717,0.3738,0.3616,0.363,0.3547,0.3459,0.3367,0.3194,0.3112,0.3462,0.3459,0.3457,0.3456,0,0.2876,0.2876,0.2864,0.2853,0.2854,0.2877,0.2923,0.2977,0.3107,0.3212,0.3343,0.3431,0.3579,0.3583,0.3635,0.3618,0.3443,0.3587,0.3535,0.3235,0.3009,0.2896,0.3379,0.3438,0.344,0.3441,0.3442,0.3443,0.2837,0.2815,0.2799,0.2776,0.278,0.2783,0.2781,0.2861,0.2947,0.3061,0.3229,0.3309,0.3437,0.3503,0.3469,0.3375,0.3308,0.3278,0.3222,0.3069,0.2922,0.3367,0.3366,0.3368,0.3369,0.337,0.3371,0,0.2761,0.274,0.272,0.2681,0.2644,0.2683,0.2718,0.2705,0.275,0.2897,0.3002,0.3122,0.3149,0.3206,0.3194,0.306,0.2892,0.2961,0.272,0.2672,0.313,0.3068,0.2954,0.2954,0.2954,0.2954,0.2955,0.2955,0.272,0.266,0.2636,0.2541,0.2516,0.2448,0.2442,0.2449,0.2522,0.2584,0.2645,0.2746,0.2912,0.2966,0.2866,0.2794,0.2568,0.2419,0.2397,0.2765,0.2791,0.2815,0.2746,0.2566,0.2565,0.1863,0.1858,0.1853]},{"header":{"parameterUnit":"m.s-1","parameterCategory":2,"la1":30.2991,"la2":30.254,"lo1":-89.0895,"lo2":-89.0444,"dy":0.0017,"dx":0.0017,"nx":28,"ny":28,"refTime":"2024-03-25T21:00:00:Z","depth":"0","parameterNumber":3,"parameterNumberName":"V-component_of_CURRENTS"},"data":[0,0,0,0,0,0,0,0,0,0,0,0,0,0,0,0,0,0,0,0,0,0,0,0,0,0,0,0,0,0,0,0,0,0,0,0,0,0,0,0,0,0,0,0,0,0,0,0,0,0,0,0,0,0,0,0,0,0,0.0297,0.0297,0,0.0256,0.0256,0.0256,0.0229,0.0229,0.0228,0.0228,0.0164,0.0162,0.0161,0,0,0,0,0,0,0,0,0,0,0,0,0,0.0289,0.0289,0.0297,0.0297,0.0296,0.0257,0.0256,0.0255,0.0229,0.0229,0.0228,0.0228,0.0164,0.0163,0.0161,0,0,0,0,0,0,0,0,0,0,0,0,0,0.0275,0.029,0.0297,0.0278,0.0276,0.0257,0.0256,0.0255,0.0229,0.0229,0.0228,0.0228,0.0165,0.0163,0.016,0.0151,0,0,0.0153,0.0152,0,0,0,0,0,0,0,0,0.0276,0.0275,0.0282,0.028,0.0277,0.0248,0.0229,0.0219,0.0229,0.0247,0.0228,0.0228,0.019,0.0186,0.0179,0.0148,0.0145,0.0153,0.0152,0.0151,0.015,0,0,0,0,0,0,0,0.0277,0.0276,0.0281,0.0281,0.0278,0.025,0.0249,0.0227,0.0219,0.0245,0.0243,0.0239,0.0189,0.0181,0.0177,0.0144,0.0153,0.0151,0.015,0.0149,0.0096,0.0096,0,0,0,0,0,0,0.0286,0.0278,0.0282,0.028,0.0276,0.0251,0.0249,0.0257,0.022,0.0215,0.0239,0.0238,0.0185,0.018,0.0174,0.0172,0.0151,0.0148,0.0147,0.0096,0.0096,0.0096,0,0,0,0,0,0,0.0286,0.0287,0.0284,0.0277,0.0275,0.0252,0.0261,0.0256,0.0251,0.0216,0.021,0.0239,0.0185,0.0178,0.016,0.0169,0.0147,0.0145,0.0096,0.0096,0.0096,0.0159,0,0,0,0,0,0,0.0286,0.0288,0.0296,0.0278,0.0275,0.028,0.0261,0.0256,0.0249,0.0247,0.0214,0.0207,0.0184,0.0164,0.0158,0.0165,0.0143,0.0096,0.0096,0.0096,0.0157,0.0161,0.0165,0,0,0,0,0,0.0286,0.0303,0.0297,0.0297,0.0288,0.0281,0.0277,0.0259,0.0249,0.0252,0.0228,0.0208,0.0159,0.0162,0.0155,0.0162,0.0096,0.0096,0.0096,0.0155,0.016,0.0165,0,0,0,0,0,0,0.03,0.0301,0.0294,0.0309,0.0298,0.0276,0.0276,0.0264,0.0247,0.0246,0.0211,0.0203,0.0189,0.0165,0.0169,0.0144,0.0123,0.0122,0.0171,0.0175,0.0179,0.0202,0.0141,0,0,0,0,0,0.0308,0.0323,0.0311,0.0321,0.0319,0.0298,0.0292,0.0283,0.0266,0.0258,0.0233,0.0205,0.0183,0.0172,0.0147,0.0137,0.0117,0.0134,0.0138,0.0142,0.0154,0.0129,0.0132,0.0096,0.0096,0.0096,0,0,0.0314,0.0317,0.0323,0.0325,0.0315,0.0321,0.0295,0.0295,0.0301,0.0254,0.0251,0.0218,0.0182,0.017,0.0162,0.0153,0.0141,0.0142,0.0146,0.0156,0.0129,0.0133,0.0136,0.0096,0.0096,0.0096,0,0,0.0337,0.0338,0.0359,0.0357,0.0352,0.034,0.0343,0.0327,0.0321,0.0311,0.028,0.0256,0.0219,0.02,0.0183,0.0194,0.0162,0.018,0.0222,0.0197,0.02,0.0202,0.0184,0.0184,0.0184,0.0184,0.0184,0,0.0342,0.0374,0.036,0.0378,0.0383,0.0353,0.0374,0.0364,0.0343,0.0343,0.0319,0.0269,0.0235,0.0228,0.0228,0.0205,0.0186,0.021,0.0204,0.0206,0.0207,0.0187,0.0187,0.0187,0.0187,0.0186,0.0186,0,0.0383,0.0406,0.0417,0.0434,0.0432,0.0448,0.0433,0.0434,0.0416,0.0399,0.0384,0.0335,0.0307,0.0287,0.026,0.0256,0.0238,0.0212,0.0198,0.0215,0.0192,0.0191,0.0191,0.019,0.0189,0.0189,0,0,0.0408,0.0441,0.0448,0.0469,0.047,0.0476,0.0489,0.0494,0.0512,0.047,0.0486,0.0428,0.0396,0.0376,0.0335,0.031,0.0299,0.0271,0.0268,0.0263,0.0248,0.0246,0.0244,0.0271,0.0272,0.0272,0.0229,0,0.0447,0.0505,0.0505,0.0548,0.0575,0.0559,0.0577,0.0573,0.0558,0.0563,0.0511,0.0496,0.0432,0.042,0.0386,0.0327,0.0297,0.0313,0.0223,0.022,0.0225,0.0243,0.0291,0.0259,0.0228,0.0227,0.0227,0,0.0493,0.053,0.0586,0.0625,0.0634,0.0647,0.0675,0.0691,0.0685,0.0673,0.0645,0.0595,0.0558,0.0497,0.0404,0.0418,0.034,0.0284,0.028,0.0258,0.0216,0.0233,0.0257,0.0156,0.0224,0.0225,0.0225,0,0.0534,0.0586,0.0638,0.0651,0.0684,0.0704,0.072,0.0724,0.0759,0.0745,0.0763,0.0689,0.0675,0.0566,0.0444,0.0422,0.0346,0.0298,0.0221,0.022,0.0234,0.0235,0.0161,0.0228,0.0228,0.0228,0.0228,0,0.0585,0.0626,0.0662,0.0692,0.0758,0.0754,0.0818,0.0824,0.0853,0.0911,0.0826,0.0856,0.0691,0.0623,0.0487,0.0366,0.0375,0.024,0.0213,0.0257,0.026,0.015,0.0066,0.0226,0.0227,0.0227,0.0227,0,0.0623,0.0649,0.0711,0.0759,0.0781,0.0827,0.0899,0.0946,0.096,0.104,0.1041,0.099,0.0906,0.0739,0.0576,0.0442,0.025,0.0255,0.0322,0.0304,0.0129,0.0047,-0.0055,-0.0115,0.0164,0.0164,0.0164,0,0.0649,0.0688,0.0765,0.0812,0.0835,0.0908,0.0967,0.1002,0.1065,0.1135,0.1185,0.1125,0.1118,0.0883,0.0634,0.0406,0.0266,0.0274,0.0232,0.0139,0.0027,-0.0016,-0.0063,0.0273,0.0274,0.0274,0.0275,0,0.0698,0.0722,0.0776,0.0878,0.0944,0.1037,0.1123,0.1196,0.126,0.1336,0.143,0.1432,0.1225,0.1037,0.0708,0.0526,0.0214,0.0278,0.0165,0.0098,0.0063,-0.0013,0.0278,0.028,0.0279,0.0279,0.0279,0.0278,0.073,0.0777,0.0851,0.0946,0.1033,0.1155,0.1247,0.1355,0.1491,0.1636,0.1627,0.1692,0.1409,0.0985,0.0704,0.0272,0.0245,0.0157,0.0063,0.0028,-0.0023,0.0283,0.0261,0.026,0.026,0.0259,0.0259,0,0.0771,0.0829,0.0917,0.1034,0.1138,0.118,0.1346,0.1457,0.1639,0.179,0.1893,0.1842,0.1462,0.1036,0.045,0.0134,0.0005,-0.0033,-0.0083,-0.0126,0.0145,0.0158,0.0134,0.0134,0.0134,0.0134,0.0134,0.0134,0.0795,0.0881,0.0928,0.11,0.1189,0.1345,0.1451,0.1632,0.1784,0.2005,0.2103,0.2144,0.1888,0.0844,0.0135,-0.0069,-0.0295,-0.0312,-0.0451,-0.0262,-0.0251,-0.024,-0.0245,-0.0354,-0.0355,-0.0643,-0.0646,-0.0648]}],[{"header":{"parameterUnit":"m.s-1","parameterCategory":2,"la1":30.2991,"la2":30.254,"lo1":-89.0895,"lo2":-89.0444,"dy":0.0017,"dx":0.0017,"nx":28,"ny":28,"refTime":"2024-03-25T21:00:00:Z","depth":"2","parameterNumber":2,"parameterNumberName":"U-component_of_CURRENTS"},"data":[0,0,0,0,0,0,0,0,0,0,0,0,0,0,0,0,0,0,0,0,0,0,0,0,0,0,0,0,0,0,0,0,0,0,0,0,0,0,0,0,0,0,0,0,0,0,0,0,0,0,0,0,0,0,0,0,0,0,0.2481,0.2482,0,0.2469,0.2469,0.2469,0.2441,0.2441,0.2441,0.244,0.2423,0.2423,0.2423,0,0,0,0,0,0,0,0,0,0,0,0,0,0.2484,0.2484,0.2481,0.2482,0.2482,0.2469,0.2469,0.2468,0.2441,0.2441,0.2441,0.244,0.2423,0.2423,0.2423,0,0,0,0,0,0,0,0,0,0,0,0,0,0.2476,0.2484,0.2481,0.2469,0.2468,0.247,0.2469,0.2468,0.2441,0.2441,0.244,0.244,0.2423,0.2423,0.2423,0.2429,0,0,0.2422,0.2421,0,0,0,0,0,0,0,0,0.2476,0.2475,0.2471,0.247,0.2469,0.2459,0.2464,0.2456,0.2441,0.2448,0.244,0.244,0.2437,0.2436,0.243,0.2428,0.2427,0.2422,0.2421,0.2421,0.2421,0,0,0,0,0,0,0,0.2477,0.2475,0.2473,0.2471,0.247,0.2465,0.2463,0.2462,0.2442,0.2447,0.2446,0.245,0.2436,0.243,0.2429,0.2427,0.2422,0.2421,0.2421,0.2421,0.2468,0.247,0,0,0,0,0,0,0.2485,0.2476,0.2474,0.2473,0.2475,0.2466,0.2463,0.246,0.2442,0.244,0.2451,0.2449,0.2431,0.2429,0.2428,0.2465,0.2421,0.2421,0.2421,0.2467,0.2469,0.247,0,0,0,0,0,0,0.2485,0.2484,0.2474,0.2477,0.2476,0.2467,0.2463,0.246,0.2464,0.2445,0.2442,0.2459,0.243,0.2429,0.2439,0.2463,0.2421,0.242,0.2465,0.2468,0.247,0.2519,0,0,0,0,0,0,0.2485,0.2484,0.2489,0.2478,0.2476,0.2486,0.2463,0.246,0.2468,0.2466,0.2452,0.2449,0.243,0.2439,0.2438,0.2462,0.242,0.2463,0.2466,0.2469,0.2516,0.2523,0.2529,0,0,0,0,0,0.2485,0.2488,0.2489,0.249,0.2482,0.2488,0.2486,0.2476,0.2469,0.2476,0.2467,0.245,0.2456,0.244,0.2439,0.2463,0.2462,0.2466,0.2469,0.2513,0.2522,0.2529,0,0,0,0,0,0,0.2488,0.2486,0.2486,0.2489,0.2496,0.2484,0.249,0.2487,0.2485,0.2485,0.2463,0.246,0.2483,0.2468,0.2451,0.2487,0.2459,0.2462,0.2493,0.2501,0.2507,0.2535,0.242,0,0,0,0,0,0.2494,0.2498,0.2499,0.2504,0.2508,0.2504,0.2507,0.2505,0.2501,0.2499,0.249,0.2486,0.2494,0.2493,0.2496,0.251,0.2519,0.2527,0.2534,0.2539,0.2563,0.2593,0.2605,0.2481,0.2481,0.2481,0,0,0.2495,0.2498,0.2498,0.2506,0.2507,0.2519,0.2504,0.2515,0.2531,0.2499,0.2515,0.2512,0.2506,0.2524,0.2532,0.2513,0.258,0.2544,0.2548,0.2569,0.2598,0.261,0.262,0.2483,0.2483,0.2483,0,0,0.25,0.2504,0.251,0.2523,0.2538,0.2538,0.2548,0.2549,0.2556,0.2569,0.2561,0.2579,0.2569,0.2582,0.2583,0.2632,0.2619,0.2628,0.2675,0.2704,0.2714,0.2724,0.275,0.2761,0.2624,0.2624,0.2624,0,0.2504,0.2507,0.2515,0.2531,0.2541,0.2551,0.2563,0.258,0.2586,0.2598,0.2581,0.2604,0.2602,0.2641,0.2662,0.2648,0.2659,0.2641,0.2713,0.2722,0.2731,0.2755,0.2767,0.2627,0.2626,0.2626,0.2626,0,0.2512,0.2523,0.253,0.2552,0.2569,0.2581,0.2608,0.2629,0.2633,0.2643,0.2681,0.2683,0.2695,0.2703,0.2697,0.2763,0.2749,0.2721,0.2691,0.2746,0.2768,0.278,0.2631,0.263,0.2629,0.2628,0,0,0.2492,0.2526,0.253,0.2539,0.2578,0.2586,0.2633,0.2664,0.2693,0.271,0.2743,0.2777,0.2782,0.2789,0.2791,0.2827,0.29,0.2807,0.2807,0.2832,0.2966,0.2908,0.2914,0.2879,0.2881,0.2883,0.2956,0,0.2492,0.2516,0.2538,0.2561,0.2572,0.2607,0.2645,0.2685,0.2716,0.2756,0.2788,0.2821,0.2814,0.2827,0.2865,0.2899,0.2933,0.2884,0.2912,0.2913,0.2853,0.2927,0.2692,0.2734,0.2967,0.2969,0.297,0,0.2486,0.2504,0.2524,0.2559,0.2567,0.259,0.2646,0.2686,0.2763,0.2788,0.2837,0.2862,0.294,0.2913,0.3004,0.297,0.2983,0.3,0.3002,0.2943,0.2876,0.2717,0.2745,0.2989,0.2987,0.2986,0.2985,0,0.2453,0.2489,0.2498,0.2512,0.2562,0.2581,0.2615,0.2691,0.2742,0.2823,0.2869,0.2933,0.299,0.302,0.3069,0.304,0.3159,0.3107,0.3066,0.3061,0.2868,0.2843,0.3168,0.3168,0.3168,0.3168,0.3168,0,0.2433,0.2439,0.2482,0.2488,0.2513,0.256,0.2612,0.2657,0.2752,0.2813,0.2888,0.2951,0.3025,0.3095,0.3103,0.3136,0.3181,0.3106,0.3087,0.2878,0.2854,0.3075,0.3063,0.317,0.317,0.3169,0.3169,0,0.2389,0.2416,0.2429,0.2477,0.2496,0.2516,0.2612,0.2647,0.2753,0.2842,0.2876,0.3004,0.309,0.3151,0.3221,0.3188,0.3209,0.3199,0.2956,0.2908,0.3081,0.3071,0.3162,0.316,0.3159,0.3159,0.3158,0,0.2365,0.2368,0.2415,0.2424,0.2443,0.2495,0.2526,0.2631,0.2681,0.2858,0.2887,0.3031,0.3085,0.3186,0.3163,0.317,0.3218,0.2945,0.2847,0.3114,0.3086,0.3078,0.3069,0.2608,0.2603,0.2599,0.2596,0,0.232,0.2338,0.2349,0.2376,0.2398,0.2433,0.2492,0.2537,0.266,0.2748,0.2849,0.2917,0.3031,0.2946,0.2984,0.2943,0.2923,0.286,0.3209,0.2649,0.2598,0.2569,0.2578,0.2558,0.2562,0.2564,0.2566,0.2568,0.2284,0.228,0.2298,0.2308,0.2333,0.2342,0.2341,0.2414,0.2483,0.2568,0.2708,0.2725,0.2777,0.2712,0.263,0.2562,0.2759,0.2617,0.2627,0.2642,0.2568,0.2518,0.2449,0.2452,0.2455,0.2457,0.2459,0,0.222,0.222,0.2228,0.2224,0.2201,0.2253,0.2283,0.2257,0.2276,0.2381,0.2448,0.229,0.2256,0.2292,0.2142,0.2143,0.2085,0.2041,0.1947,0.1989,0.2025,0.1914,0.1625,0.1622,0.1619,0.1616,0,0,0.2187,0.2156,0.2148,0.2082,0.208,0.202,0.2008,0.1994,0.2028,0.2012,0.2004,0.218,0.225,0.1921,0.1884,0.1726,0.1832,0.165,0.233,0.2263,0.2295,0.2381,0.2262,0,0,0,0,0]},{"header":{"parameterUnit":"m.s-1","parameterCategory":2,"la1":30.2991,"la2":30.254,"lo1":-89.0895,"lo2":-89.0444,"dy":0.0017,"dx":0.0017,"nx":28,"ny":28,"refTime":"2024-03-25T21:00:00:Z","depth":"2","parameterNumber":3,"parameterNumberName":"V-component_of_CURRENTS"},"data":[0,0,0,0,0,0,0,0,0,0,0,0,0,0,0,0,0,0,0,0,0,0,0,0,0,0,0,0,0,0,0,0,0,0,0,0,0,0,0,0,0,0,0,0,0,0,0,0,0,0,0,0,0,0,0,0,0,0,0.0226,0.0226,0,0.0196,0.0195,0.0195,0.0177,0.0177,0.0177,0.0177,0.0114,0.0113,0.0111,0,0,0,0,0,0,0,0,0,0,0,0,0,0.0208,0.0209,0.0226,0.0226,0.0225,0.0196,0.0195,0.0195,0.0177,0.0177,0.0177,0.0177,0.0115,0.0113,0.0111,0,0,0,0,0,0,0,0,0,0,0,0,0,0.0201,0.0209,0.0226,0.0213,0.0211,0.0196,0.0195,0.0195,0.0177,0.0177,0.0177,0.0176,0.0115,0.0113,0.0111,0.0098,0,0,0.0103,0.0102,0,0,0,0,0,0,0,0,0.0201,0.0201,0.0215,0.0214,0.0212,0.019,0.0166,0.0161,0.0177,0.019,0.0177,0.0176,0.0137,0.0133,0.0127,0.0095,0.0093,0.0103,0.0102,0.0101,0.01,0,0,0,0,0,0,0,0.0202,0.0202,0.0214,0.0215,0.0213,0.0188,0.0187,0.0165,0.0164,0.0189,0.0187,0.0184,0.0136,0.013,0.0126,0.0092,0.0103,0.0101,0.01,0.0099,0.0053,0.0053,0,0,0,0,0,0,0.0209,0.0203,0.0215,0.0213,0.0206,0.0188,0.0188,0.0197,0.0164,0.016,0.0184,0.0183,0.0134,0.0129,0.0123,0.0121,0.0101,0.0098,0.0097,0.0053,0.0053,0.0053,0,0,0,0,0,0,0.0209,0.0211,0.0216,0.0206,0.0205,0.0189,0.02,0.0197,0.0194,0.0162,0.0156,0.0185,0.0134,0.0127,0.0112,0.0118,0.0097,0.0095,0.0053,0.0053,0.0053,0.0108,0,0,0,0,0,0,0.0209,0.0212,0.0218,0.0208,0.0206,0.0214,0.02,0.0196,0.0192,0.0191,0.016,0.0154,0.0133,0.0116,0.011,0.0115,0.0093,0.0052,0.0053,0.0053,0.0106,0.011,0.0113,0,0,0,0,0,0.0209,0.0224,0.0219,0.022,0.0218,0.0214,0.0212,0.0198,0.0192,0.0195,0.0176,0.0156,0.0114,0.0114,0.0107,0.0111,0.0052,0.0053,0.0053,0.0104,0.0109,0.0113,0,0,0,0,0,0,0.0217,0.0223,0.0218,0.0233,0.0226,0.0211,0.0211,0.0203,0.019,0.019,0.0159,0.0152,0.014,0.0118,0.0119,0.0099,0.0079,0.0078,0.012,0.0124,0.0128,0.0145,0.0091,0,0,0,0,0,0.0223,0.0237,0.0231,0.0241,0.0241,0.0226,0.0222,0.0217,0.0205,0.0199,0.0177,0.0153,0.0136,0.0125,0.0104,0.0093,0.0072,0.009,0.0094,0.0098,0.0106,0.008,0.0083,0.0055,0.0055,0.0055,0,0,0.0227,0.0232,0.0238,0.0244,0.0237,0.0244,0.0224,0.0226,0.0234,0.0194,0.0193,0.0166,0.0136,0.0126,0.0118,0.0109,0.0095,0.0099,0.0102,0.0108,0.0081,0.0084,0.0086,0.0055,0.0055,0.0055,0,0,0.0246,0.0249,0.0267,0.0268,0.0266,0.0258,0.0262,0.0251,0.0249,0.0243,0.0218,0.02,0.0167,0.0152,0.0139,0.0151,0.0116,0.0139,0.0173,0.0147,0.015,0.0151,0.013,0.0129,0.0141,0.0141,0.0141,0,0.0249,0.0278,0.0269,0.0286,0.0292,0.0269,0.0289,0.0282,0.0268,0.0269,0.025,0.0211,0.0182,0.0177,0.018,0.0161,0.014,0.0159,0.0153,0.0155,0.0155,0.0133,0.0132,0.0144,0.0144,0.0143,0.0143,0,0.0284,0.0306,0.0316,0.0334,0.0334,0.0349,0.034,0.0342,0.033,0.0317,0.0306,0.0267,0.0245,0.0229,0.0207,0.0201,0.0183,0.0162,0.0145,0.0162,0.0137,0.0134,0.0148,0.0147,0.0146,0.0145,0,0,0.0306,0.0337,0.0343,0.0363,0.0367,0.0375,0.0389,0.0395,0.0412,0.0378,0.0392,0.0348,0.0319,0.0303,0.0269,0.0245,0.0229,0.0209,0.0207,0.0195,0.0174,0.016,0.0156,0.0204,0.0204,0.0204,0.0155,0,0.034,0.0392,0.0394,0.0434,0.046,0.045,0.0466,0.0465,0.0454,0.0458,0.0414,0.0403,0.035,0.0341,0.0309,0.0253,0.0225,0.0244,0.0154,0.0152,0.0142,0.0153,0.0172,0.013,0.0153,0.0152,0.0152,0,0.038,0.0414,0.0466,0.0503,0.0513,0.0526,0.0554,0.057,0.0563,0.0554,0.0529,0.0486,0.045,0.04,0.0311,0.0325,0.0255,0.0205,0.0201,0.0169,0.0133,0.0115,0.0124,0.0148,0.0148,0.0148,0.0149,0,0.0415,0.0464,0.0511,0.0524,0.0558,0.0577,0.0593,0.0597,0.063,0.0615,0.063,0.0561,0.0548,0.0448,0.0335,0.0322,0.0236,0.0203,0.0124,0.0122,0.0112,0.0109,0.0137,0.0137,0.0137,0.0137,0.0137,0,0.046,0.0497,0.0532,0.056,0.0622,0.062,0.0679,0.0686,0.0709,0.0758,0.0683,0.0703,0.0559,0.0489,0.0367,0.0246,0.0256,0.0136,0.0111,0.0131,0.0131,0.0123,0.0123,0.0135,0.0136,0.0136,0.0136,0,0.0492,0.0516,0.0574,0.0619,0.0642,0.0684,0.0751,0.0794,0.0804,0.0869,0.0869,0.0816,0.0727,0.0576,0.0423,0.0304,0.0176,0.0126,0.0161,0.0141,0.0069,0.0071,0.0034,0.0034,0.0033,0.0032,0.0032,0,0.0514,0.0548,0.0622,0.0665,0.0688,0.0755,0.081,0.0843,0.0898,0.0946,0.0986,0.0918,0.0894,0.0664,0.0438,0.0226,0.0187,0.009,0.0063,0.0081,0.0059,0.0063,0.0066,0.0068,0.0068,0.0068,0.0068,0,0.0554,0.0577,0.0628,0.0721,0.0783,0.0871,0.0948,0.101,0.1064,0.1116,0.1171,0.1155,0.0951,0.0746,0.0448,0.0292,0.0122,0.008,0.0093,0.0093,0.0109,0.0089,0.0092,0.0067,0.0067,0.0067,0.0067,0.0067,0.0581,0.0623,0.069,0.0778,0.086,0.0969,0.1049,0.1136,0.1241,0.1334,0.1311,0.1293,0.1058,0.0687,0.0419,0.0121,0.0139,0.0025,0.0027,0.0028,0.0043,0.0057,0.0007,0.0007,0.0007,0.0007,0.0007,0,0.0615,0.0666,0.0744,0.0851,0.0943,0.0988,0.1132,0.1214,0.1343,0.1425,0.1472,0.1242,0.1015,0.0728,0.0307,0.006,0.0029,-0.0039,-0.0013,-0.0009,-0.0007,0.0007,-0.0039,-0.004,-0.0041,-0.0042,0,0,0.0634,0.0707,0.0747,0.0897,0.0979,0.1115,0.1204,0.133,0.1419,0.1499,0.1491,0.1465,0.1119,0.0804,0.0466,0.0219,0.0155,0.0154,0.022,0.0297,0.0302,0.0061,0.0089,0,0,0,0,0]}],[{"header":{"parameterUnit":"m.s-1","parameterCategory":2,"la1":30.2991,"la2":30.254,"lo1":-89.0895,"lo2":-89.0444,"dy":0.0017,"dx":0.0017,"nx":28,"ny":28,"refTime":"2024-03-25T21:00:00:Z","depth":"4","parameterNumber":2,"parameterNumberName":"U-component_of_CURRENTS"},"data":[0,0,0,0,0,0,0,0,0,0,0,0,0,0,0,0,0,0,0,0,0,0,0,0,0,0,0,0,0,0,0,0,0,0,0,0,0,0,0,0,0,0,0,0,0,0,0,0,0,0,0,0,0,0,0,0,0,0,0.1673,0.1674,0,0.1727,0.1727,0.1727,0.1768,0.1769,0.177,0.1771,0.1795,0.1795,0.1795,0,0,0,0,0,0,0,0,0,0,0,0,0,0.159,0.1591,0.1673,0.1674,0.1675,0.1726,0.1727,0.1727,0.1768,0.1769,0.177,0.1771,0.1795,0.1795,0.1795,0,0,0,0,0,0,0,0,0,0,0,0,0,0.163,0.1591,0.1673,0.1704,0.1708,0.1726,0.1727,0.1727,0.1768,0.1769,0.177,0.1771,0.1795,0.1795,0.1795,0.1773,0,0,0.1795,0.1795,0,0,0,0,0,0,0,0,0.1627,0.1632,0.1699,0.1702,0.1706,0.1745,0.1707,0.1742,0.1768,0.1741,0.1771,0.1772,0.1777,0.1779,0.1782,0.1774,0.1775,0.1795,0.1795,0.1795,0.1795,0,0,0,0,0,0,0,0.1624,0.163,0.1691,0.17,0.1705,0.1711,0.1717,0.1714,0.1749,0.1744,0.1748,0.1759,0.1779,0.1781,0.1782,0.1776,0.1795,0.1795,0.1795,0.1795,0.1863,0.1864,0,0,0,0,0,0,0.1625,0.1627,0.1689,0.1693,0.1673,0.1711,0.1719,0.1729,0.175,0.1756,0.1758,0.1761,0.1781,0.1782,0.1783,0.1851,0.1795,0.1795,0.1795,0.1861,0.1863,0.1865,0,0,0,0,0,0,0.1623,0.163,0.1687,0.1664,0.1672,0.1712,0.1723,0.1729,0.1769,0.1762,0.1767,0.1797,0.1782,0.1783,0.1819,0.1849,0.1795,0.1795,0.1859,0.1861,0.1864,0.1927,0,0,0,0,0,0,0.162,0.1629,0.1651,0.1664,0.1674,0.1721,0.1722,0.173,0.1774,0.1779,0.1796,0.1797,0.1783,0.182,0.1819,0.1848,0.1795,0.1856,0.186,0.1863,0.1922,0.1931,0.1939,0,0,0,0,0,0.1617,0.1635,0.1652,0.166,0.1698,0.1722,0.1728,0.1757,0.1776,0.1796,0.1816,0.1798,0.1841,0.1821,0.182,0.1849,0.1855,0.1859,0.1863,0.1919,0.1929,0.1939,0,0,0,0,0,0,0.161,0.1642,0.166,0.1688,0.1718,0.1732,0.1758,0.1778,0.1809,0.1826,0.1817,0.182,0.1864,0.1851,0.1829,0.1881,0.1846,0.185,0.1889,0.1899,0.1907,0.1917,0.1795,0,0,0,0,0,0.162,0.1646,0.1673,0.1701,0.1718,0.1746,0.1767,0.1789,0.1812,0.183,0.1842,0.1858,0.1873,0.1884,0.1892,0.1915,0.1914,0.1937,0.1945,0.1952,0.1961,0.1984,0.1995,0.1878,0.1878,0.1878,0,0,0.1625,0.1648,0.1664,0.1703,0.1728,0.1756,0.1762,0.1805,0.1837,0.1825,0.1879,0.1889,0.1888,0.1921,0.1938,0.1917,0.1988,0.1957,0.1963,0.1969,0.199,0.2001,0.2011,0.1881,0.1881,0.188,0,0,0.1638,0.1672,0.1695,0.1723,0.1772,0.1788,0.181,0.1847,0.1878,0.1921,0.1928,0.1963,0.1978,0.1989,0.1992,0.2051,0.2033,0.2057,0.2102,0.2125,0.2134,0.2143,0.2166,0.2176,0.2058,0.2058,0.2058,0,0.1649,0.1678,0.1707,0.1738,0.1766,0.1807,0.1837,0.1871,0.1919,0.1943,0.195,0.2002,0.2009,0.2045,0.2076,0.2069,0.2081,0.2061,0.2135,0.2143,0.215,0.2172,0.2182,0.2061,0.2061,0.2061,0.206,0,0.1667,0.1707,0.1724,0.1776,0.1809,0.1845,0.1891,0.1935,0.1975,0.2001,0.2062,0.2078,0.2106,0.2119,0.2118,0.2178,0.217,0.2144,0.2106,0.2166,0.2185,0.2194,0.2066,0.2065,0.2064,0.2063,0,0,0.1648,0.1722,0.1734,0.1763,0.1835,0.1857,0.1922,0.1975,0.2019,0.2071,0.212,0.2166,0.2185,0.2193,0.2202,0.2232,0.2304,0.2222,0.2222,0.224,0.2364,0.2211,0.2207,0.2292,0.2294,0.2296,0.2359,0,0.1657,0.1711,0.175,0.1809,0.1838,0.1896,0.1947,0.2007,0.206,0.2118,0.2157,0.2208,0.2209,0.2238,0.227,0.23,0.2331,0.229,0.2308,0.2309,0.2161,0.2212,0.2301,0.2366,0.2368,0.237,0.2371,0,0.1655,0.1695,0.1752,0.1823,0.1842,0.1889,0.1973,0.2027,0.2115,0.2156,0.2216,0.2249,0.2323,0.2307,0.2384,0.2361,0.2376,0.2389,0.2391,0.2231,0.2173,0.2292,0.2387,0.2386,0.2384,0.2383,0.2382,0,0.1611,0.1691,0.1736,0.1763,0.1853,0.1896,0.1952,0.2043,0.2099,0.2196,0.2247,0.2312,0.2373,0.24,0.2444,0.2424,0.2515,0.2478,0.2352,0.2342,0.2432,0.2422,0.2524,0.2524,0.2524,0.2524,0.2523,0,0.1584,0.1624,0.1726,0.175,0.1812,0.1885,0.1964,0.2026,0.213,0.2187,0.2273,0.232,0.2405,0.2461,0.247,0.2442,0.2534,0.237,0.2347,0.2459,0.2451,0.2439,0.2428,0.2526,0.2526,0.2525,0.2525,0,0.1522,0.159,0.1648,0.1754,0.1795,0.1844,0.1976,0.2019,0.2135,0.2217,0.2255,0.2367,0.2426,0.2487,0.2544,0.2468,0.2457,0.2423,0.2562,0.2544,0.2264,0.2256,0.2275,0.227,0.2266,0.2263,0.226,0,0.1488,0.1516,0.1644,0.1684,0.174,0.1832,0.1884,0.2009,0.2054,0.2215,0.223,0.235,0.2401,0.2363,0.2432,0.2428,0.2398,0.2374,0.2296,0.2262,0.2239,0.2237,0.2235,0.2253,0.2252,0.2251,0.225,0,0.1427,0.1491,0.154,0.1628,0.1695,0.1756,0.1844,0.1868,0.1996,0.2127,0.2147,0.2171,0.2236,0.2259,0.2285,0.2273,0.2373,0.233,0.2337,0.2264,0.2236,0.2216,0.2219,0.2236,0.2238,0.2239,0.224,0,0.1388,0.1409,0.1488,0.1547,0.1625,0.1643,0.1708,0.1749,0.1813,0.1977,0.1979,0.2094,0.221,0.2181,0.2197,0.2181,0.2135,0.2045,0.2066,0.2083,0.1988,0.1923,0.1812,0,0,0,0,0,0.1337,0.1347,0.1397,0.1447,0.1513,0.1557,0.1654,0.1716,0.1844,0.1804,0.1886,0.1925,0.1946,0.2008,0.195,0.2115,0.2151,0.2038,0.206,0.2156,0.2173,0.2077,0,0,0,0,0,0,0.1302,0.1348,0.136,0.1344,0.1354,0.1409,0.1462,0.1551,0.1537,0.1676,0.1699,0.1803,0.1858,0.196,0.1913,0.1931,0.1901,0.2116,0.211,0.2147,0.2162,0.2175,0.2082,0,0,0,0,0]},{"header":{"parameterUnit":"m.s-1","parameterCategory":2,"la1":30.2991,"la2":30.254,"lo1":-89.0895,"lo2":-89.0444,"dy":0.0017,"dx":0.0017,"nx":28,"ny":28,"refTime":"2024-03-25T21:00:00:Z","depth":"4","parameterNumber":3,"parameterNumberName":"V-component_of_CURRENTS"},"data":[0,0,0,0,0,0,0,0,0,0,0,0,0,0,0,0,0,0,0,0,0,0,0,0,0,0,0,0,0,0,0,0,0,0,0,0,0,0,0,0,0,0,0,0,0,0,0,0,0,0,0,0,0,0,0,0,0,0,0.0199,0.0199,0,0.0185,0.0185,0.0185,0.0178,0.0179,0.0179,0.0179,0.0137,0.0135,0.0134,0,0,0,0,0,0,0,0,0,0,0,0,0,0.0179,0.018,0.0199,0.0199,0.0199,0.0185,0.0185,0.0185,0.0178,0.0179,0.0179,0.0179,0.0137,0.0136,0.0134,0,0,0,0,0,0,0,0,0,0,0,0,0,0.0179,0.018,0.0199,0.0194,0.0193,0.0185,0.0185,0.0184,0.0178,0.0179,0.0179,0.0179,0.0137,0.0136,0.0134,0.0123,0,0,0.0129,0.0128,0,0,0,0,0,0,0,0,0.0179,0.018,0.0195,0.0194,0.0194,0.0183,0.0162,0.0163,0.0178,0.0184,0.0179,0.0179,0.0149,0.0147,0.0145,0.0121,0.0119,0.0129,0.0128,0.0127,0.0126,0,0,0,0,0,0,0,0.0179,0.018,0.0194,0.0195,0.0194,0.0178,0.0178,0.0162,0.0167,0.0184,0.0183,0.0181,0.0149,0.0146,0.0144,0.0119,0.0129,0.0127,0.0126,0.0126,0.01,0.0101,0,0,0,0,0,0,0.0183,0.018,0.0194,0.0193,0.0186,0.0178,0.0179,0.0187,0.0167,0.0165,0.0181,0.0181,0.0149,0.0146,0.0142,0.0147,0.0127,0.0125,0.0124,0.01,0.0101,0.0101,0,0,0,0,0,0,0.0183,0.0185,0.0195,0.0186,0.0186,0.0179,0.0188,0.0186,0.0189,0.0166,0.0163,0.0186,0.0149,0.0144,0.0137,0.0144,0.0125,0.0123,0.01,0.01,0.0101,0.0144,0,0,0,0,0,0,0.0182,0.0185,0.0191,0.0186,0.0186,0.0196,0.0188,0.0186,0.0187,0.0187,0.0168,0.0164,0.0149,0.014,0.0136,0.0142,0.0122,0.0099,0.01,0.0101,0.0142,0.0146,0.0149,0,0,0,0,0,0.0182,0.0194,0.0192,0.0194,0.0196,0.0196,0.0195,0.0189,0.0188,0.0191,0.0181,0.0165,0.0141,0.0139,0.0134,0.0139,0.0099,0.01,0.0101,0.0141,0.0145,0.0149,0,0,0,0,0,0,0.0187,0.0194,0.0192,0.0205,0.0202,0.0195,0.0197,0.0194,0.0189,0.0191,0.0169,0.0165,0.016,0.0144,0.0143,0.0134,0.0117,0.0117,0.0149,0.0153,0.0157,0.0168,0.012,0,0,0,0,0,0.0192,0.0204,0.0202,0.0212,0.0212,0.0205,0.0204,0.0203,0.0198,0.0196,0.0182,0.0168,0.0158,0.0152,0.0138,0.0134,0.0113,0.0134,0.0137,0.014,0.0146,0.0123,0.0125,0.0104,0.0104,0.0104,0,0,0.0195,0.0201,0.0207,0.0213,0.0211,0.0218,0.0205,0.021,0.022,0.0191,0.0197,0.0179,0.0159,0.0157,0.0153,0.0145,0.0135,0.0141,0.0144,0.0148,0.0124,0.0126,0.0128,0.0104,0.0104,0.0104,0,0,0.021,0.0215,0.0229,0.0232,0.0234,0.023,0.0234,0.023,0.0232,0.0234,0.0217,0.0208,0.0189,0.018,0.0172,0.0186,0.0154,0.0178,0.0206,0.0184,0.0185,0.0187,0.0161,0.0159,0.0181,0.0181,0.0181,0,0.0213,0.0237,0.0231,0.0246,0.0253,0.0239,0.0256,0.0254,0.0249,0.0253,0.0241,0.0221,0.0202,0.0203,0.0208,0.0195,0.0174,0.0192,0.0189,0.0189,0.019,0.0163,0.0161,0.0184,0.0183,0.0183,0.0183,0,0.024,0.0259,0.0267,0.0284,0.0287,0.03,0.0298,0.0304,0.03,0.0293,0.0292,0.0267,0.0256,0.0246,0.0231,0.0228,0.0209,0.0195,0.0179,0.0195,0.0165,0.0162,0.0187,0.0186,0.0185,0.0185,0,0,0.0255,0.0282,0.0288,0.0306,0.0313,0.0321,0.0337,0.0347,0.0364,0.0345,0.0361,0.0335,0.0314,0.0305,0.0282,0.0262,0.0244,0.0233,0.023,0.021,0.019,0.0171,0.0165,0.0227,0.0227,0.0226,0.0167,0,0.0281,0.0322,0.0327,0.0362,0.0383,0.0381,0.04,0.0404,0.04,0.0408,0.0381,0.0378,0.0339,0.0336,0.031,0.0264,0.0238,0.0261,0.0176,0.0173,0.0156,0.0162,0.0226,0.0165,0.0164,0.0163,0.0163,0,0.0309,0.0336,0.038,0.0417,0.0426,0.0441,0.0472,0.0489,0.049,0.0487,0.0472,0.0441,0.0415,0.038,0.0302,0.0317,0.0257,0.0215,0.0211,0.0178,0.0149,0.0145,0.0157,0.0157,0.0158,0.0158,0.0159,0,0.033,0.0374,0.0414,0.0427,0.0461,0.0483,0.0503,0.0513,0.0543,0.0537,0.055,0.0498,0.0489,0.0406,0.0311,0.0305,0.0221,0.0202,0.0126,0.0124,0.0139,0.0139,0.0143,0.0143,0.0143,0.0143,0.0143,0,0.0359,0.0392,0.043,0.0454,0.0511,0.0517,0.0572,0.0584,0.0609,0.0646,0.0593,0.0604,0.0495,0.0431,0.0331,0.022,0.0231,0.0132,0.0109,0.0158,0.016,0.0137,0.0137,0.0141,0.0142,0.0142,0.0142,0,0.0375,0.0401,0.0452,0.05,0.0524,0.0564,0.0632,0.0668,0.0683,0.0732,0.0734,0.0687,0.0602,0.0481,0.0351,0.0258,0.0146,0.0102,0.0165,0.0146,0.0057,0.006,0.0013,0.0012,0.0011,0.0011,0.001,0,0.0386,0.0415,0.0489,0.0529,0.0555,0.062,0.067,0.0707,0.0749,0.0782,0.0807,0.0744,0.0692,0.0501,0.0362,0.0165,0.0132,0.0063,0.0055,0.0062,0.0044,0.0049,0.0053,0.0008,0.0008,0.0008,0.0008,0,0.0407,0.0434,0.0478,0.0563,0.0622,0.0699,0.0769,0.0807,0.0854,0.0868,0.0866,0.0766,0.0672,0.0509,0.0355,0.0212,0.0102,0.0053,0.0054,0.0045,0.0056,0.004,0.0045,0.0004,0.0005,0.0005,0.0005,0,0.0421,0.0453,0.0514,0.0589,0.0671,0.0752,0.0792,0.0841,0.0886,0.0914,0.0911,0.0806,0.0747,0.0534,0.0394,0.0249,0.0205,0.0143,0.0138,0.014,0.0187,0.0219,0.0201,0,0,0,0,0,0.0432,0.047,0.0536,0.062,0.0702,0.0754,0.0846,0.0879,0.0925,0.0929,0.0923,0.0831,0.0632,0.0551,0.0403,0.036,0.017,0.0179,0.0093,-0.0014,-0.001,0.0021,0,0,0,0,0,0,0.0438,0.0498,0.0531,0.0632,0.0692,0.0789,0.0851,0.0886,0.089,0.0911,0.0813,0.0771,0.0582,0.0714,0.0393,0.0351,0.0269,0.0092,0.0088,-0.0016,-0.0013,-0.0009,0.0024,0,0,0,0,0]}]]